Weather Roundup
Issued by NWS Corpus Christi, TX

Home | Current Version | Previous Version | Text Only | Print | Product List | Glossary Off
Versions: 1 2 3 4 5 6 7 8 9 10 11 12 13 14 15 16 17 18 19 20 21 22 23 24 25 26 27 28 29 30 31 32 33 34 35 36 37 38 39 40 41 42 43 44 45 46 47 48 49 50

000
ASUS44 KCRP 030610
HRRCRP

SOUTH TEXAS REGIONAL WEATHER ROUNDUP
NATIONAL WEATHER SERVICE CORPUS CHRISTI TX
100 AM CDT WED SEP 03 2014


TXZ229>244-030700-
...CORPUS CHRISTI AREA OBSERVATIONS...

CITY           SKY/WX    TMP DP  RH WIND       PRES   REMARKS
CORPUS CHRISTI MOCLDY    81  75  82 SE9       29.92S
NAS CORPUS CHR FAIR      84  76  76 SE18      29.91F HX  93
ROCKPORT       FAIR      83  75  77 SE16      29.92S HX  90
KINGSVILLE NAS MOCLDY    76  74  93 SE12      29.94R
ALICE          LGT RAIN  80  72  76 SE7       29.92R
FALFURRIAS     CLOUDY    70  66  88 E8        29.92S
$$

...VICTORIA AREA OBSERVATIONS...

CITY           SKY/WX    TMP DP  RH WIND       PRES   REMARKS
VICTORIA       FAIR      79  77  94 SE7       29.94F
BEEVILLE       FAIR      79  76  92 SE7       29.94R
PLEASANTON     FAIR      80  72  76 E6        29.95R
SAN ANTONIO    FAIR      80  71  74 SE10      29.96S
$$

...LAREDO AREA OBSERVATIONS...

CITY           SKY/WX    TMP DP  RH WIND       PRES   REMARKS
LAREDO         FAIR      82  73  74 SE14      29.95R
COTULLA        FAIR      82  71  69 SE14      29.92R
DEL RIO        FAIR      85  70  60 SE14G21   29.90R
MCALLEN        CLOUDY    81  75  82 E10       29.91R
HEBBRONVILLE   FAIR      79  74  84 E12       29.94S
$$

...OTHER TEXAS OBSERVATIONS...

CITY           SKY/WX    TMP DP  RH WIND       PRES   REMARKS
BROWNSVILLE    FAIR      79  77  94 NE7       29.89S
HOUSTON        FAIR      79  76  90 SE5       29.96F
COL. STATION   FAIR      80  74  81 S8        29.97R
AUSTIN         FAIR      79  72  79 S10       29.95S
WACO           FAIR      82  71  69 S16       29.95S
FORT WORTH     FAIR      82  73  74 S14       29.93S
WICHITA FALLS  FAIR      84  68  58 S16       29.89S
LUBBOCK        FAIR      80  60  50 S15G22    29.99R
EL PASO        CLEAR     77  42  28 E7        29.92S
$$

...MARINE OBSERVATIONS...

STATION/POSITION TIME  SKY/WX   TEMP    WIND        PRES    VSBY  WAVE   SWELL
                                AIR SEA DIR/SP/G                  HT/PER HT/PER
                 (UTC)          (F)     (DEG/KT/KT) (MB)    (MI)  (FT/S) (FT/S)
PORT ARANSAS     0600            84 85  120/ 18/ 20 1013.7R
BUOY 90 E PORT A 0600            85 85  110/ 16/ 19 1013.7F         8/10   7/10
BUOY 45 SE BAFFI 0600            85 85  110/ 19/ 23 1012.0F        10/10   7/10
BUOY 200 E PT IS 0600            85 85  110/ 17/ 21 1013.3F         8/10   7/10
BUOY 15 E GALVES 0600            84 85  140/ 16/ 17 1014.0F         5/ 8   3/ 8
$$


USA.gov is the U.S. government's official web portal to all federal, state and local government web resources and services.